This is the latest recevied weather packets stored in our database for station/object E24QND-2. If no packets are shown the sender has not sent any weather packets the latest 10 day(s).
| Time | Temp. | Humidity | Pressure | Rain* | Wind** | Luminosity | Snow |
|---|---|---|---|---|---|---|---|
| 1777558076 | 30° C | 48% | - | - | - | 0 W/m² | - |
| 1777556852 | 30.56° C | 37% | - | - | - | 0 W/m² | - |
| 1777555627 | 30.56° C | 36% | - | - | - | 0 W/m² | - |
| 1777554402 | 30.56° C | 27% | - | - | - | 0 W/m² | - |
| 1777553178 | 30.56° C | 29% | - | - | - | 0 W/m² | - |
| 1777551953 | 31.11° C | 21% | - | - | - | 0 W/m² | - |
| 1777550729 | 31.67° C | 17% | - | - | - | 0 W/m² | - |
| 1777549504 | 31.67° C | 13% | - | - | - | 0 W/m² | - |
| 1777548280 | 32.22° C | 2% | - | - | - | 0 W/m² | - |
| 1777547055 | 32.78° C | 1% | - | - | - | 0 W/m² | - |
| 1777545831 | 33.33° C | 1% | - | - | - | 0 W/m² | - |
| 1777544606 | 33.89° C | 1% | - | - | - | 0 W/m² | - |
| 1777543382 | 35° C | 1% | - | - | - | 0 W/m² | - |
| 1777542157 | 35.56° C | 1% | - | - | - | 0 W/m² | - |
| 1777540932 | 35° C | 1% | - | - | - | 0 W/m² | - |
| 1777539708 | 35.56° C | 1% | - | - | - | 0 W/m² | - |
| 1777538483 | 36.11° C | 1% | - | - | - | 0 W/m² | - |
| 1777537259 | 35.56° C | 4% | - | - | - | 0 W/m² | - |
| 1777536034 | 33.89° C | 7% | - | - | - | 0 W/m² | - |
| 1777534809 | 35° C | 11% | - | - | - | 0 W/m² | - |
| 1777533585 | 34.44° C | 12% | - | - | - | 0 W/m² | - |
| 1777532360 | 33.33° C | 21% | - | - | - | 0 W/m² | - |
| 1777531136 | 34.44° C | 21% | - | - | - | 0 W/m² | - |
| 1777529911 | 35.56° C | 16% | - | - | - | 0 W/m² | - |
| 1777528687 | 34.44° C | 20% | - | - | - | 0 W/m² | - |
* Rain since midnight (hover to see other rain measurements)
** Current wind speed in m/s (hover to see current wind gust speed)